When you browse on this site, cookies collect data to enhance your experience and personalize the content and advertising you see.
Visit our Privacy Policy to learn more. By continuing to use the site, you agree to this use of cookies and data.
  • en Suisse
  • Liste des pays
  • À 7 jours
  • Température de l'eau
  • Carte satellitaire
  • Carte météo
  • Widgets météo
  • user-avatar
    Se connecter

    Météo par heure à Ulanovka

    Ce jour, 27 Juin, Jeudi

    Heure Température Précipitation Vent Pression Humidité
    00:00 +16°C° 0 mm 3 m/s 743 mmHg 88%
    01:00 +15°C° 0.4 mm 2 m/s 743 mmHg 91%
    02:00 +15°C° 0.4 mm 2 m/s 742 mmHg 94%
    03:00 +15°C° 0.4 mm 2 m/s 742 mmHg 97%
    04:00 +15°C° 0.5 mm 2 m/s 741 mmHg 97%
    05:00 +15°C° 0.5 mm 2 m/s 740 mmHg 97%
    06:00 +15°C° 0.5 mm 2 m/s 740 mmHg 97%
    07:00 +15°C° 0 mm 2 m/s 740 mmHg 95%
    08:00 +16°C° 0 mm 2 m/s 739 mmHg 93%
    09:00 +17°C° 0 mm 3 m/s 739 mmHg 91%
    10:00 +17°C° 0 mm 3 m/s 738 mmHg 89%
    11:00 +18°C° 0 mm 4 m/s 737 mmHg 87%
    12:00 +19°C° 0 mm 4 m/s 736 mmHg 85%
    13:00 +17°C° 3.3 mm 5 m/s 736 mmHg 89%
    14:00 +17°C° 3.3 mm 5 m/s 735 mmHg 93%
    15:00 +16°C° 3.3 mm 5 m/s 734 mmHg 97%
    16:00 +16°C° 6.9 mm 6 m/s 733 mmHg 97%
    17:00 +17°C° 6.9 mm 6 m/s 732 mmHg 97%
    18:00 +17°C° 6.9 mm 6 m/s 731 mmHg 98%
    19:00 +17°C° 2.6 mm 5 m/s 730 mmHg 98%
    20:00 +18°C° 2.6 mm 4 m/s 729 mmHg 98%
    21:00 +18°C° 2.6 mm 3 m/s 728 mmHg 97%
    22:00 +18°C° 0 mm 3 m/s 727 mmHg 97%
    23:00 +17°C° 0 mm 2 m/s 727 mmHg 97%

    Demain, 28 Juin, Vendredi

    Heure Température Précipitation Vent Pression Humidité
    00:00 +17°C° 0 mm 2 m/s 726 mmHg 97%
    01:00 +17°C° 0 mm 3 m/s 725 mmHg 97%
    02:00 +17°C° 0 mm 4 m/s 725 mmHg 97%
    03:00 +17°C° 0 mm 5 m/s 725 mmHg 97%
    04:00 +16°C° 0 mm 5 m/s 725 mmHg 96%
    05:00 +16°C° 0 mm 5 m/s 724 mmHg 95%
    06:00 +16°C° 0 mm 6 m/s 724 mmHg 93%
    07:00 +15°C° 0.1 mm 6 m/s 724 mmHg 93%
    08:00 +14°C° 0.1 mm 6 m/s 724 mmHg 92%
    09:00 +14°C° 0.1 mm 6 m/s 724 mmHg 91%
    10:00 +14°C° 0 mm 6 m/s 724 mmHg 88%
    11:00 +15°C° 0 mm 6 m/s 724 mmHg 86%
    12:00 +15°C° 0 mm 6 m/s 724 mmHg 84%
    13:00 +15°C° 0.1 mm 6 m/s 724 mmHg 83%
    14:00 +15°C° 0.1 mm 6 m/s 724 mmHg 83%
    15:00 +15°C° 0.1 mm 6 m/s 724 mmHg 83%
    16:00 +15°C° 0.2 mm 5 m/s 724 mmHg 84%
    17:00 +15°C° 0.2 mm 5 m/s 724 mmHg 85%
    18:00 +15°C° 0.2 mm 5 m/s 724 mmHg 86%
    19:00 +14°C° 0 mm 4 m/s 725 mmHg 88%
    20:00 +13°C° 0 mm 4 m/s 725 mmHg 90%
    21:00 +12°C° 0 mm 4 m/s 725 mmHg 92%
    22:00 +12°C° 0.1 mm 4 m/s 725 mmHg 92%
    23:00 +11°C° 0.1 mm 4 m/s 725 mmHg 93%

    Après-demain, 29 Juin, Samedi

    Heure Température Précipitation Vent Pression Humidité
    00:00 +11°C° 0.1 mm 4 m/s 725 mmHg 94%
    01:00 +10°C° 0.6 mm 5 m/s 725 mmHg 94%
    02:00 +10°C° 0.6 mm 6 m/s 725 mmHg 95%
    03:00 +9°C° 0.6 mm 6 m/s 725 mmHg 95%
    04:00 +10°C° 0.6 mm 7 m/s 725 mmHg 95%
    05:00 +10°C° 0.6 mm 7 m/s 726 mmHg 95%
    06:00 +10°C° 0.6 mm 7 m/s 726 mmHg 95%
    07:00 +9°C° 0.6 mm 7 m/s 726 mmHg 95%
    08:00 +9°C° 0.6 mm 8 m/s 727 mmHg 94%
    09:00 +9°C° 0.6 mm 8 m/s 727 mmHg 94%
    10:00 +7°C° 0.2 mm 8 m/s 728 mmHg 94%
    11:00 +7°C° 0.2 mm 8 m/s 729 mmHg 94%
    12:00 +7°C° 0.2 mm 8 m/s 729 mmHg 94%
    13:00 +6°C° 0.3 mm 7 m/s 730 mmHg 94%
    14:00 +6°C° 0.3 mm 7 m/s 731 mmHg 94%
    15:00 +6°C° 0.3 mm 7 m/s 731 mmHg 93%
    16:00 +7°C° 0.3 mm 6 m/s 732 mmHg 94%
    17:00 +5°C° 0.3 mm 6 m/s 732 mmHg 94%
    18:00 +6°C° 0.3 mm 5 m/s 733 mmHg 95%
    19:00 +6°C° 0.4 mm 5 m/s 733 mmHg 95%
    20:00 +7°C° 0.4 mm 5 m/s 733 mmHg 95%
    21:00 +7°C° 0.4 mm 4 m/s 734 mmHg 95%
    22:00 +7°C° 0.1 mm 4 m/s 734 mmHg 94%
    23:00 +7°C° 0.1 mm 4 m/s 734 mmHg 94%

    30 Juin, Dimanche

    Heure Température Précipitation Vent Pression Humidité
    00:00 +7°C° 0.1 mm 4 m/s 734 mmHg 93%
    01:00 +7°C° 0.1 mm 4 m/s 734 mmHg 93%
    02:00 +7°C° 0.1 mm 4 m/s 734 mmHg 92%
    03:00 +7°C° 0.1 mm 4 m/s 735 mmHg 92%
    04:00 +7°C° 0.1 mm 4 m/s 735 mmHg 91%
    05:00 +7°C° 0.1 mm 4 m/s 735 mmHg 90%
    06:00 +8°C° 0.1 mm 3 m/s 736 mmHg 89%
    07:00 +10°C° 0 mm 4 m/s 736 mmHg 84%
    08:00 +11°C° 0 mm 4 m/s 736 mmHg 80%
    09:00 +12°C° 0 mm 4 m/s 737 mmHg 75%
    10:00 +13°C° 0 mm 5 m/s 737 mmHg 71%
    11:00 +15°C° 0 mm 5 m/s 737 mmHg 66%
    12:00 +16°C° 0 mm 6 m/s 738 mmHg 62%
    13:00 +17°C° 0 mm 6 m/s 738 mmHg 61%
    14:00 +17°C° 0 mm 6 m/s 738 mmHg 60%
    15:00 +17°C° 0 mm 6 m/s 738 mmHg 59%
    16:00 +17°C° 0 mm 5 m/s 738 mmHg 63%
    17:00 +18°C° 0 mm 4 m/s 738 mmHg 67%
    18:00 +18°C° 0 mm 3 m/s 738 mmHg 71%
    19:00 +17°C° 0 mm 3 m/s 738 mmHg 73%
    20:00 +14°C° 0 mm 3 m/s 739 mmHg 74%
    21:00 +14°C° 0 mm 2 m/s 739 mmHg 76%
    22:00 +13°C° 0 mm 2 m/s 739 mmHg 77%
    23:00 +13°C° 0 mm 2 m/s 739 mmHg 77%

    1 Juillet, Lundi

    Heure Température Précipitation Vent Pression Humidité
    00:00 +12°C° 0 mm 2 m/s 739 mmHg 78%
    01:00 +12°C° 0 mm 2 m/s 739 mmHg 82%
    02:00 +10°C° 0 mm 2 m/s 739 mmHg 86%
    03:00 +10°C° 0 mm 2 m/s 739 mmHg 89%
    04:00 +10°C° 0 mm 2 m/s 739 mmHg 89%
    05:00 +12°C° 0 mm 2 m/s 740 mmHg 89%
    06:00 +13°C° 0 mm 2 m/s 740 mmHg 89%
    07:00 +14°C° 0 mm 2 m/s 740 mmHg 85%
    08:00 +16°C° 0 mm 2 m/s 740 mmHg 80%
    09:00 +17°C° 0 mm 2 m/s 740 mmHg 76%
    10:00 +18°C° 0.1 mm 2 m/s 740 mmHg 73%
    11:00 +20°C° 0.1 mm 1 m/s 740 mmHg 69%
    12:00 +21°C° 0.1 mm 1 m/s 740 mmHg 66%
    13:00 +21°C° 0.1 mm 1 m/s 739 mmHg 65%
    14:00 +22°C° 0.1 mm 1 m/s 739 mmHg 64%
    15:00 +22°C° 0.1 mm 1 m/s 739 mmHg 62%
    16:00 +22°C° 0.1 mm 1 m/s 739 mmHg 63%
    17:00 +22°C° 0.1 mm 1 m/s 739 mmHg 63%
    18:00 +20°C° 0.1 mm 0 m/s 739 mmHg 64%
    19:00 +18°C° 0 mm 0 m/s 739 mmHg 68%
    20:00 +19°C° 0 mm 1 m/s 738 mmHg 73%
    21:00 +16°C° 0 mm 1 m/s 738 mmHg 78%
    22:00 +15°C° 0 mm 1 m/s 738 mmHg 81%
    23:00 +15°C° 0 mm 2 m/s 738 mmHg 84%

    2 Juillet, Mardi

    Heure Température Précipitation Vent Pression Humidité
    00:00 +14°C° 0 mm 2 m/s 738 mmHg 87%
    01:00 +14°C° 0 mm 2 m/s 738 mmHg 87%
    02:00 +13°C° 0 mm 2 m/s 737 mmHg 87%
    03:00 +13°C° 0 mm 2 m/s 737 mmHg 87%
    04:00 +13°C° 0 mm 2 m/s 737 mmHg 87%
    05:00 +14°C° 0 mm 2 m/s 737 mmHg 86%
    06:00 +14°C° 0 mm 2 m/s 736 mmHg 85%
    07:00 +16°C° 0 mm 3 m/s 736 mmHg 83%
    08:00 +18°C° 0 mm 3 m/s 736 mmHg 80%
    09:00 +19°C° 0 mm 3 m/s 735 mmHg 77%
    10:00 +21°C° 0 mm 3 m/s 735 mmHg 76%
    11:00 +22°C° 0 mm 3 m/s 735 mmHg 74%
    12:00 +25°C° 0 mm 3 m/s 735 mmHg 73%
    13:00 +25°C° 1 mm 3 m/s 734 mmHg 75%
    14:00 +25°C° 1 mm 3 m/s 734 mmHg 76%
    15:00 +25°C° 1 mm 3 m/s 733 mmHg 78%
    16:00 +24°C° 1.1 mm 3 m/s 733 mmHg 81%
    17:00 +24°C° 1.1 mm 3 m/s 733 mmHg 83%
    18:00 +24°C° 1.1 mm 3 m/s 733 mmHg 86%
    19:00 +21°C° 0.3 mm 4 m/s 733 mmHg 88%
    20:00 +20°C° 0.3 mm 4 m/s 733 mmHg 90%
    21:00 +19°C° 0.3 mm 4 m/s 733 mmHg 92%
    22:00 +18°C° 0 mm 4 m/s 733 mmHg 91%
    23:00 +17°C° 0 mm 4 m/s 733 mmHg 90%
    Voir plus